Time,TemperatureF,DewpointF,PressureIn,WindDirection,WindDirectionDegrees,WindSpeedMPH,WindSpeedGustMPH,Humidity,HourlyPrecipIn,Conditions,Clouds,dailyrainin,SoftwareType,DateUTC
2013-04-27 00:00:00,51.0,-99.9,-100.00,SSW,207,2.0,7.0,-999,-99.99,,,-99.99,,2013-04-27 06:00:00,
2013-04-27 00:52:00,51.0,-99.9,-100.00,SSW,207,2.0,7.0,-999,-99.99,,,-99.99,,2013-04-27 06:52:00,
2013-04-27 01:00:00,51.0,-99.9,-100.00,SSE,167,5.0,13.0,-999,-99.99,,,-99.99,,2013-04-27 07:00:00,
2013-04-27 01:52:00,51.0,-99.9,-100.00,SSE,167,5.0,13.0,-999,-99.99,,,-99.99,,2013-04-27 07:52:00,
2013-04-27 02:00:00,51.0,-99.9,-100.00,WNW,303,1.0,5.0,-999,-99.99,,,-99.99,,2013-04-27 08:00:00,
2013-04-27 02:52:00,51.0,-99.9,-100.00,WNW,303,1.0,5.0,-999,-99.99,,,-99.99,,2013-04-27 08:52:00,
2013-04-27 03:00:00,48.0,-99.9,-100.00,WNW,287,5.0,10.0,-999,-99.99,,,-99.99,,2013-04-27 09:00:00,
2013-04-27 03:53:00,48.0,-99.9,-100.00,WNW,287,5.0,10.0,-999,-99.99,,,-99.99,,2013-04-27 09:53:00,
2013-04-27 04:00:00,46.0,-99.9,-100.00,NW,324,5.0,6.0,-999,-99.99,,,-99.99,,2013-04-27 10:00:00,
2013-04-27 04:53:00,46.0,-99.9,-100.00,NW,324,5.0,6.0,-999,-99.99,,,-99.99,,2013-04-27 10:53:00,
2013-04-27 05:00:00,44.0,-99.9,-100.00,WNW,294,1.0,1.0,-999,-99.99,,,-99.99,,2013-04-27 11:00:00,
2013-04-27 05:52:00,44.0,-99.9,-100.00,WNW,294,1.0,1.0,-999,-99.99,,,-99.99,,2013-04-27 11:52:00,
2013-04-27 06:00:00,41.0,-99.9,-100.00,WNW,282,9.0,12.0,-999,-99.99,,,-99.99,,2013-04-27 12:00:00,
2013-04-27 06:52:00,41.0,-99.9,-100.00,WNW,282,9.0,12.0,-999,-99.99,,,-99.99,,2013-04-27 12:52:00,
2013-04-27 07:00:00,42.0,-99.9,-100.00,West,265,2.0,5.0,-999,-99.99,,,-99.99,,2013-04-27 13:00:00,
2013-04-27 07:52:00,42.0,-99.9,-100.00,West,265,2.0,5.0,-999,-99.99,,,-99.99,,2013-04-27 13:52:00,
2013-04-27 08:00:00,50.0,-99.9,-100.00,West,263,3.0,7.0,-999,-99.99,,,-99.99,,2013-04-27 14:00:00,
2013-04-27 08:52:00,50.0,-99.9,-100.00,West,263,3.0,7.0,-999,-99.99,,,-99.99,,2013-04-27 14:52:00,
2013-04-27 09:00:00,59.0,-99.9,-100.00,WSW,258,13.0,13.0,-999,-99.99,,,-99.99,,2013-04-27 15:00:00,
2013-04-27 09:53:00,59.0,-99.9,-100.00,WSW,258,13.0,13.0,-999,-99.99,,,-99.99,,2013-04-27 15:53:00,
2013-04-27 10:00:00,64.0,-99.9,-100.00,SW,225,8.0,13.0,-999,-99.99,,,-99.99,,2013-04-27 16:00:00,
2013-04-27 10:53:00,64.0,-99.9,-100.00,SW,225,8.0,13.0,-999,-99.99,,,-99.99,,2013-04-27 16:53:00,
2013-04-27 11:00:00,71.0,-99.9,-100.00,SW,231,7.0,10.0,-999,-99.99,,,-99.99,,2013-04-27 17:00:00,
2013-04-27 11:53:00,71.0,-99.9,-100.00,SW,231,7.0,10.0,-999,-99.99,,,-99.99,,2013-04-27 17:53:00,
2013-04-27 12:00:00,73.0,-99.9,-100.00,WSW,239,8.0,11.0,-999,-99.99,,,-99.99,,2013-04-27 18:00:00,
2013-04-27 12:52:00,73.0,-99.9,-100.00,WSW,239,8.0,11.0,-999,-99.99,,,-99.99,,2013-04-27 18:52:00,
2013-04-27 13:00:00,77.0,-99.9,-100.00,WSW,254,9.0,12.0,-999,-99.99,,,-99.99,,2013-04-27 19:00:00,
2013-04-27 13:53:00,77.0,-99.9,-100.00,WSW,254,9.0,12.0,-999,-99.99,,,-99.99,,2013-04-27 19:53:00,
2013-04-27 14:00:00,78.0,-99.9,-100.00,NW,304,7.0,15.0,-999,-99.99,,,-99.99,,2013-04-27 20:00:00,
2013-04-27 14:52:00,78.0,-99.9,-100.00,NW,304,7.0,15.0,-999,-99.99,,,-99.99,,2013-04-27 20:52:00,
2013-04-27 15:00:00,78.0,-99.9,-100.00,West,280,11.0,14.0,-999,-99.99,,,-99.99,,2013-04-27 21:00:00,
2013-04-27 15:53:00,78.0,-99.9,-100.00,West,280,11.0,14.0,-999,-99.99,,,-99.99,,2013-04-27 21:53:00,
2013-04-27 16:00:00,80.0,-99.9,-100.00,NNW,343,8.0,20.0,-999,-99.99,,,-99.99,,2013-04-27 22:00:00,
2013-04-27 16:53:00,80.0,-99.9,-100.00,NNW,343,8.0,20.0,-999,-99.99,,,-99.99,,2013-04-27 22:53:00,
2013-04-27 17:00:00,78.0,-99.9,-100.00,WNW,301,7.0,13.0,-999,-99.99,,,-99.99,,2013-04-27 23:00:00,
2013-04-27 17:53:00,78.0,-99.9,-100.00,WNW,301,7.0,13.0,-999,-99.99,,,-99.99,,2013-04-27 23:53:00,
2013-04-27 18:00:00,75.0,-99.9,-100.00,North,4,8.0,15.0,-999,-99.99,,,-99.99,,2013-04-28 00:00:00,
2013-04-27 18:52:00,75.0,-99.9,-100.00,North,4,8.0,15.0,-999,-99.99,,,-99.99,,2013-04-28 00:52:00,
2013-04-27 19:00:00,73.0,-99.9,-100.00,North,1,7.0,8.0,-999,-99.99,,,-99.99,,2013-04-28 01:00:00,
2013-04-27 19:52:00,73.0,-99.9,-100.00,North,1,7.0,8.0,-999,-99.99,,,-99.99,,2013-04-28 01:52:00,
2013-04-27 20:00:00,64.0,-99.9,-100.00,NNE,12,7.0,8.0,-999,-99.99,,,-99.99,,2013-04-28 02:00:00,
2013-04-27 20:52:00,64.0,-99.9,-100.00,NNE,12,7.0,8.0,-999,-99.99,,,-99.99,,2013-04-28 02:52:00,
2013-04-27 21:00:00,60.0,-99.9,-100.00,WNW,296,2.0,2.0,-999,-99.99,,,-99.99,,2013-04-28 03:00:00,
2013-04-27 21:53:00,60.0,-99.9,-100.00,WNW,296,2.0,2.0,-999,-99.99,,,-99.99,,2013-04-28 03:53:00,
2013-04-27 22:00:00,55.0,-99.9,-100.00,WNW,287,3.0,3.0,-999,-99.99,,,-99.99,,2013-04-28 04:00:00,
2013-04-27 22:53:00,55.0,-99.9,-100.00,WNW,287,3.0,3.0,-999,-99.99,,,-99.99,,2013-04-28 04:53:00,
2013-04-27 23:00:00,51.0,-99.9,-100.00,West,269,5.0,5.0,-999,-99.99,,,-99.99,,2013-04-28 05:00:00,
2013-04-27 23:52:00,51.0,-99.9,-100.00,West,269,5.0,5.0,-999,-99.99,,,-99.99,,2013-04-28 05:52:00,